Location: Bouhet
(46.1654°N, 0.8582°W)
Time: 13:50:38
(UTC+00:00)

Daily predictions for brighter satellites

Satellite Brightness Start Highest point End
(mag) Time Altitude Azimuth Time Altitude Azimuth Time Altitude Azimuth
CZ-4C R/B 3.0 17:36:21 10° NW 17:43:34 87° NE 17:51:48 10° SE
Cosmos 1486 Rocket 4.2 17:38:33 10° NNW 17:43:54 86° WSW 17:49:14 10° SSE
Cosmos 1758 3.2 17:40:08 10° S 17:44:06 75° E 17:48:04 10° NNE
Unknown 3.7 17:40:00 10° SW 17:44:07 69° SE 17:48:14 10° ENE
COSMOS 2406 4.1 17:40:18 10° N 17:45:22 30° NE 17:50:22 10° ESE
Cosmos 2082 Rocket 4.0 17:43:20 10° N 17:46:13 14° NE 17:49:05 10° ENE
Unknown 3.6 17:44:03 10° SW 17:48:10 74° SSE 17:52:19 10° ENE
Unknown 3.6 17:44:10 10° SW 17:48:17 74° SSE 17:52:27 10° ENE
Cosmos 1354 Rocket 4.1 17:43:58 10° NNW 17:49:08 55° ENE 17:54:16 10° SE
Unknown 3.6 17:45:56 10° SW 17:50:03 79° SSE 17:54:13 10° ENE
NOSS 2-1 (C) 4.5 17:46:38 10° NW 17:51:59 72° NE 17:59:28 10° SE
Cosmos 1726 Rocket 4.1 17:48:11 10° SSE 17:52:15 38° E 17:56:19 10° NNE
ASTEX 1 3.8 17:48:29 10° NNE 17:53:10 41° E 17:57:51 10° SSE
Unknown 3.6 17:49:13 10° SW 17:53:22 82° SSE 17:57:31 10° ENE
Unknown 3.6 17:49:47 10° SW 17:53:55 81° SSE 17:58:04 10° ENE
Unknown 3.6 17:50:49 10° SW 17:54:57 82° SSE 17:59:07 10° ENE
NOSS 2-1 (D) 4.5 17:49:56 10° NW 17:55:19 76° NE 18:02:51 10° SE
Okean-O 3.0 17:52:13 10° S 17:56:39 71° WSW 18:01:05 10° NNW
FengYun 1-2 T 4.3 17:51:14 10° SSE 17:56:46 61° ENE 18:02:19 10° N
CSL-04 Debris 4.4 17:51:42 10° SE 17:56:54 48° ENE 18:02:10 10° N
Cosmos 1242 Rocket 3.6 17:54:38 10° NNE 17:57:48 26° ENE 18:00:58 10° SE
Unknown 3.6 17:54:01 10° SW 17:58:10 83° SSE 18:02:20 10° ENE
Shenzhou-11 Module 3.3 17:56:23 10° SW 17:58:44 25° SSE 18:00:58 11° ESE
Cosmos 968 Rocket 3.5 17:54:19 10° NNW 17:59:36 76° ENE 18:04:52 10° SSE
Unknown 4.4 17:57:59 10° NW 18:00:39 25° N 18:03:09 11° ENE
Unknown 3.6 17:57:25 10° WSW 18:01:35 89° SE 18:05:45 10° ENE
Cosmos 2239 Rocket 4.5 17:55:52 10° N 18:02:00 65° E 18:08:05 10° SSE
Cosmos 2058 Rocket 3.7 17:58:20 10° SSE 18:02:11 31° E 18:06:04 10° NNE
Unknown 3.6 17:59:05 10° WSW 18:03:14 89° NNW 18:07:24 10° ENE
Cosmos 1939 Rocket 4.0 18:00:45 10° ESE 18:03:56 24° ENE 18:07:11 10° NNE
Unknown 3.6 18:00:47 10° WSW 18:04:56 87° NNW 18:09:06 10° ENE
Cosmos 2228 3.1 18:01:11 10° S 18:05:28 55° E 18:09:45 10° NNE
Ariane Rocket 3.9 18:01:11 10° ESE 18:05:29 29° ENE 18:09:49 10° N
Unknown 3.6 18:02:26 10° WSW 18:06:35 85° NNW 18:10:43 10° ENE
Cosmos 1821 Rocket 3.9 18:02:16 10° N 18:08:24 80° E 18:14:33 10° SSE
Lacrosse 5 rocket 1.1 18:05:01 10° NW 18:08:46 79° NE 18:12:43 10° SE
Cosmos 482 Debris 4.5 18:03:37 10° WNW 18:09:13 67° NNE 18:12:02 14° ESE
Unknown 3.7 18:05:43 10° WSW 18:09:52 81° NNW 18:13:52 11° ENE
Unknown 4.3 18:06:22 10° W 18:10:09 46° NNW 18:13:52 10° NE
Unknown 4.4 18:07:31 10° W 18:11:10 40° NNW 18:14:45 10° NE
Unknown 3.7 18:07:30 10° WSW 18:11:39 79° NNW 18:15:34 11° ENE
Cosmos 1844 Rocket 2.7 18:06:45 10° SSW 18:12:24 77° ESE 18:18:04 10° NNE
Unknown 3.7 18:09:06 10° WSW 18:13:15 78° NNW 18:17:06 12° ENE
Meteor 1-16 Rocket 4.3 18:08:28 10° S 18:13:52 52° E 18:19:09 10° NNE
Cosmos 1992 Rocket 3.9 18:09:02 10° SSW 18:14:14 78° ESE 18:19:29 10° NNE
Cosmos 1503 Rocket 4.1 18:09:24 10° NNW 18:14:35 84° WSW 18:19:46 10° SSE
Unknown 3.7 18:10:42 10° WSW 18:14:50 77° NNW 18:18:38 12° ENE
Meteor 2-10 4.4 18:10:08 10° SSE 18:14:51 39° E 18:19:32 10° NNE
Unknown 3.7 18:11:17 10° WSW 18:15:26 75° NNW 18:19:12 12° ENE
Nadezhda 3 Rocket 4.1 18:09:44 10° S 18:16:01 90° NW 18:22:23 10° N
Cosmos 921 Rocket 3.3 18:12:36 10° S 18:16:57 50° ESE 18:21:18 10° NNE
Unknown 3.7 18:13:53 10° WSW 18:18:02 77° NNW 18:21:40 13° ENE
CZ-4 R/B 4.4 18:14:55 10° SSE 18:19:02 89° WSW 18:23:11 10° NNW
Cosmos 1908 4.1 18:16:38 10° SSE 18:19:58 28° E 18:23:20 10° NNE
COSMO-SKYMED 1 2.5 18:16:32 10° NNE 18:20:55 87° ESE 18:25:14 10° SSW
Unknown 3.8 18:17:15 10° WSW 18:21:23 74° NNW 18:24:54 14° ENE
YAOGAN 6 2.6 18:18:05 10° SSE 18:21:46 89° ENE 18:25:27 10° NNW
CZ-4 R/B 1.5 18:18:34 10° SSE 18:22:43 86° WSW 18:26:57 10° NNW
Cosmos 1328 4.0 18:19:03 10° N 18:22:56 47° ENE 18:26:45 10° SSE
Cosmos 1470 4.3 18:19:13 10° SSW 18:22:58 40° WNW 18:26:45 10° N
Unknown 3.8 18:18:52 10° WSW 18:23:00 72° NNW 18:26:27 15° NE
Cosmos 1934 Rocket 4.0 18:16:53 10° N 18:23:11 68° E 18:29:31 10° SSE
Cosmos 1535 Rocket 4.4 18:17:07 10° N 18:23:21 69° E 18:29:27 10° SSE
Unknown 3.9 18:20:49 10° WSW 18:24:57 66° NNW 18:28:19 15° NE
Unknown 3.8 18:22:12 10° WSW 18:26:20 69° NNW 18:29:39 15° NE
Cosmos 2084 3.5 18:23:19 10° SW 18:27:52 87° SE 18:32:22 10° NE
Unknown 3.9 18:23:54 10° WSW 18:28:02 67° NNW 18:31:16 16° NE
Cosmos 2278 Rocket 3.0 18:24:03 10° SSE 18:28:43 27° ESE 18:33:24 10° NE
Cosmos 839 Rocket 4.1 18:22:45 10° NNW 18:28:54 64° NE 18:35:45 10° SE
H-2A R/B 3.5 18:28:32 17° ENE 18:29:39 18° ENE 18:33:10 10° NNE
Unknown 3.9 18:27:13 10° WSW 18:31:20 65° NNW 18:34:27 17° NE
USA 116 3.0 18:28:16 10° NNE 18:31:23 70° ESE 18:34:37 10° S
Cosmos 1844 3.7 18:26:16 10° SSW 18:31:58 86° ESE 18:37:47 10° NNE
Unknown 3.9 18:28:56 10° WSW 18:33:03 64° NNW 18:36:05 17° NE
Lacrosse 5 3.1 18:28:44 10° NW 18:33:10 29° NNE 18:35:56 18° ENE
Cosmos 1953 Rocket 3.8 18:29:25 10° NNW 18:33:48 71° W 18:38:07 10° S
HJ-1C 4.2 18:33:06 26° E 18:33:56 29° ENE 18:36:55 10° N
Unknown 4.0 18:30:36 10° WSW 18:34:43 62° NNW 18:37:40 18° NE
Unknown 4.0 18:32:17 10° WSW 18:36:24 61° NNW 18:39:17 19° NE
Unknown 4.0 18:35:38 10° WSW 18:39:43 58° NNW 18:42:28 20° NE
Unknown 4.1 18:37:18 10° WSW 18:41:23 56° NNW 18:44:05 20° NE
Unknown 4.2 18:37:38 10° W 18:41:42 53° NNW 18:44:23 20° NE
ATLAS 5 CENTAUR R/B 2.7 18:38:47 10° WSW 18:42:55 44° NW 18:47:35 10° NNE
Unknown 4.2 18:39:15 10° W 18:43:18 53° NNW 18:45:55 21° NE
Cosmos 292 Rocket 3.7 18:38:41 10° S 18:43:19 57° ESE 18:48:00 10° NNE
Unknown 4.2 18:42:15 10° WSW 18:46:19 54° NNW 18:48:48 22° NE
Unknown 2.5 18:44:18 10° NW 18:46:57 60° NNE 18:47:05 58° NE
Unknown 4.2 18:45:37 10° W 18:49:40 52° NNW 18:52:00 23° NE
Unknown 4.2 18:47:22 10° W 18:51:25 51° NNW 18:53:41 24° NE
Unknown 4.3 18:48:58 10° W 18:53:01 50° NNW 18:55:12 24° NE
Unknown 4.3 18:50:43 10° W 18:54:45 50° NNW 18:56:52 25° NE
CSL-04 Rocket 4.4 18:51:29 10° S 18:56:56 57° WSW 19:02:22 10° NNW
Unknown 4.4 18:54:38 10° W 18:58:35 44° NNW 19:00:28 26° NE
CZ-2D R/B 3.3 18:55:20 10° S 18:59:10 77° WSW 19:03:03 10° NNW
SL-4 R/B 3.2 18:56:29 10° WNW 18:59:55 32° SW 19:01:45 20° S
NOAA 11 4.1 18:54:28 10° SSE 18:59:56 89° WSW 19:05:25 10° NNW
Cosmos 1153 Rocket 4.5 18:54:14 10° N 19:00:18 56° ENE 19:06:13 10° SSE
Unknown 4.4 18:57:22 10° W 19:01:23 46° NNW 19:03:13 28° NE
Unknown 4.4 18:59:04 10° W 19:03:04 46° NNW 19:04:49 28° NE
Unknown 4.4 19:00:45 10° W 19:04:45 45° NNW 19:06:26 29° NE
Cosmos 1812 Rocket 4.4 19:07:06 33° NE 19:07:06 33° NE 19:10:00 10° NNE
Unknown 4.5 19:02:23 10° W 19:06:22 44° NNW 19:07:59 29° NNE
Unknown 4.5 19:04:05 10° W 19:08:03 44° NNW 19:09:36 30° NNE
Cosmos 489 Rocket 4.4 19:02:09 10° SSW 19:08:22 89° ESE 19:14:37 10° NNE
Gbstr 26 Del rocket 4.2 19:03:30 10° WNW 19:09:41 65° NNE 19:12:54 34° E
Cosmos 1356 4.4 19:07:50 10° SSW 19:11:10 47° WNW 19:14:31 10° N
Cosmos 1833 Rocket 2.7 19:08:18 10° NNW 19:13:53 61° ENE 19:15:36 42° ESE
YAOGAN 1 4.4 19:10:43 10° SSW 19:14:36 32° W 19:18:31 10° NNW
Cosmos 1726 3.4 19:11:55 10° SSW 19:15:24 40° WNW 19:18:52 10° N
ARGOS 3.7 19:15:46 38° ENE 19:15:46 38° ENE 19:20:45 10° N
Cosmos 1703 4.3 19:12:37 10° NNW 19:16:24 46° W 19:20:09 10° SSW
SJ-6B 4.3 19:19:40 25° NNE 19:19:40 25° NNE 19:21:29 10° N
Cosmos 1461 3.5 19:18:45 10° NNW 19:22:03 42° NNE 19:22:03 42° NNE
Cosmos 1076 Rocket 3.8 19:23:20 10° N 19:26:54 53° NNE 19:26:54 53° NNE
ADEOS Rocket 3.6 19:21:17 10° NNE 19:28:48 50° E 19:35:52 10° S
COSMOS 2406 3.9 19:24:21 10° NW 19:29:58 53° WSW 19:34:55 13° S
Cosmos 2082 Rocket 2.2 19:25:56 10° NNW 19:31:37 59° ENE 19:32:05 57° E
MOS 1 4.3 19:30:30 21° S 19:34:26 80° WSW 19:40:08 10° NNW
SJ-11-01 4.3 19:40:17 62° S 19:41:02 78° WSW 19:45:44 10° NNW
Ariane Rocket 4.2 19:39:27 10° S 19:44:16 42° W 19:49:07 10° NNW
Lacrosse 5 rocket 3.7 19:45:10 10° W 19:47:30 15° SW 19:48:43 14° SSW
SPOT 3 Rocket 3.4 19:49:52 87° NNE 19:49:52 87° NNE 19:55:02 10° NNW
USA 238 DEB 3.5 19:46:28 10° SSW 19:53:04 67° ESE 19:53:10 67° ESE
USA 238 3.5 19:46:35 10° SSW 19:53:11 67° ESE 19:53:11 67° ESE
Cosmos 1459 Rocket 3.8 19:48:54 10° N 19:55:08 84° E 19:55:51 71° SSE
Resurs 01 Rocket 3.8 19:59:19 17° N 19:59:19 17° N 20:00:24 10° N
USA 234 3.9 20:01:10 38° S 20:01:10 38° S 20:05:26 10° SSW
Cosmos 1727 Rocket 4.5 19:54:28 10° SSW 20:00:32 58° WNW 20:06:38 10° N
In-Cosmos 22 Rocket 4.4 19:55:56 10° N 20:00:10 57° N 20:00:10 57° N
Cosmos 1802 Rocket 3.9 20:00:18 10° N 20:06:46 85° ENE 20:06:46 85° ENE
H-2A R/B 2.4 20:09:10 64° NW 20:09:10 64° NW 20:13:49 10° NNW
Cosmos 2278 Rocket 2.9 20:06:58 10° SW 20:12:29 51° WNW 20:16:57 16° NNE
SJ 16-02 3.8 20:08:51 10° N 20:09:32 14° N 20:09:32 14° N
Cosmos 2173 Rocket 4.1 20:09:39 10° NNW 20:15:55 70° W 20:16:35 64° SW
Lacrosse 5 2.8 20:11:41 10° NW 20:15:08 43° NW 20:15:08 43° NW
CZ-2C R/B 4.0 20:26:59 49° NNW 20:26:59 49° NNW 20:31:10 10° NNW
NOSS 3-3 (A) 4.4 20:17:46 10° NW 20:25:18 84° SW 20:25:43 80° S
NOSS 3-3 (C) 4.4 20:17:52 10° NW 20:25:24 85° SW 20:25:48 81° S
ATLAS 5 CENTAUR R/B 4.3 20:26:18 10° NW 20:28:58 15° NNW 20:30:17 13° N
BREEZE-M DEB (TANK) 4.5 20:23:51 10° WSW 20:27:46 30° WSW 20:27:46 30° WSW
Cosmos 2082 Rocket 4.3 21:10:49 10° NW 21:13:57 22° W 21:13:57 22° W
